| time (UTC) | temp F | wind direction | speed MPH | gust MPH | rain 1hr in | rain 24hr in | rain mn in | humidity % | barometer mb |
| 20260504100503 | 34 | 270 | 0.0 | 2.0 | 0.00 | 0.00 | 0.00 | 75 | 1012.1 |
| 20260504082003 | 40 | 338 | 1.0 | 2.0 | 0.00 | 0.00 | 0.00 | 63 | 1012.3 |
| 20260504081503 | 40 | 331 | 1.0 | 2.0 | 0.00 | 0.00 | 0.00 | 63 | 1012.5 |
| 20260504081003 | 40 | 342 | 1.0 | 3.0 | 0.00 | 0.00 | 0.00 | 63 | 1012.5 |
| 20260504080503 | 40 | 350 | 1.0 | 4.0 | 0.00 | 0.00 | 0.00 | 63 | 1012.5 |
| 20260504050503 | 43 | 271 | 2.0 | 7.0 | 0.00 | 0.00 | 0.00 | 57 | 1012.0 |
| 20260504050003 | 43 | 275 | 2.0 | 6.0 | 0.00 | 0.00 | 0.00 | 57 | 1012.0 |
| 20260504045524 | 43 | 263 | 2.0 | 9.0 | 0.00 | 0.00 | 0.00 | 57 | 1012.0 |
| 20260504045003 | 43 | 267 | 2.0 | 9.0 | 0.00 | 0.00 | 0.00 | 58 | 1011.9 |
| 20260504044504 | 43 | 278 | 2.0 | 7.0 | 0.00 | 0.00 | 0.00 | 58 | 1011.8 |
| 20260504044024 | 43 | 287 | 2.0 | 7.0 | 0.00 | 0.00 | 0.00 | 58 | 1011.8 |
| 20260504043503 | 43 | 284 | 1.0 | 6.0 | 0.00 | 0.00 | 0.00 | 58 | 1011.9 |
| 20260504043024 | 43 | 266 | 1.0 | 6.0 | 0.00 | 0.00 | 0.00 | 58 | 1011.8 |
| 20260504042503 | 43 | 277 | 2.0 | 7.0 | 0.00 | 0.00 | 0.00 | 58 | 1011.8 |
| 20260504042003 | 42 | 281 | 2.0 | 7.0 | 0.00 | 0.00 | 0.00 | 59 | 1011.7 |
| 20260504041503 | 42 | 269 | 1.0 | 7.0 | 0.00 | 0.00 | 0.00 | 59 | 1011.7 |
| 20260504041003 | 42 | 291 | 1.0 | 7.0 | 0.00 | 0.00 | 0.00 | 60 | 1011.8 |
| 20260504040524 | 42 | 315 | 1.0 | 4.0 | 0.00 | 0.00 | 0.00 | 60 | 1011.7 |
| 20260504040003 | 42 | 302 | 1.0 | 4.0 | 0.00 | 0.00 | 0.00 | 60 | 1011.6 |
| 20260504035524 | 42 | 299 | 1.0 | 4.0 | 0.00 | 0.00 | 0.00 | 59 | 1011.7 |
| 20260504035003 | 42 | 308 | 1.0 | 4.0 | 0.00 | 0.00 | 0.00 | 58 | 1011.4 |
| 20260504034503 | 42 | 322 | 1.0 | 3.0 | 0.00 | 0.00 | 0.00 | 58 | 1011.6 |
| 20260504034003 | 42 | 325 | 1.0 | 3.0 | 0.00 | 0.00 | 0.00 | 58 | 1011.3 |
| 20260504033503 | 42 | 303 | 1.0 | 3.0 | 0.00 | 0.00 | 0.00 | 57 | 1011.4 |
| 20260504033003 | 43 | 297 | 1.0 | 4.0 | 0.00 | 0.00 | 0.00 | 58 | 1011.3 |
| 20260504032503 | 42 | 307 | 1.0 | 4.0 | 0.00 | 0.00 | 0.00 | 58 | 1011.5 |
| 20260504032003 | 42 | 277 | 1.0 | 4.0 | 0.00 | 0.00 | 0.00 | 59 | 1011.6 |
| 20260504031503 | 42 | 230 | 1.0 | 6.0 | 0.00 | 0.00 | 0.00 | 58 | 1011.7 |
| 20260504031003 | 42 | 252 | 1.0 | 6.0 | 0.00 | 0.00 | 0.00 | 58 | 1011.6 |
| 20260504030503 | 42 | 318 | 0.0 | 2.0 | 0.00 | 0.00 | 0.00 | 58 | 1011.4 |
| 20260504030024 | 42 | 287 | 0.0 | 2.0 | 0.00 | 0.00 | 0.00 | 59 | 1011.5 |
| 20260504025503 | 42 | 279 | 0.0 | 2.0 | 0.00 | 0.00 | 0.00 | 59 | 1011.6 |
| 20260504025003 | 42 | 259 | 0.0 | 2.0 | 0.00 | 0.00 | 0.00 | 59 | 1011.6 |
| 20260504024503 | 42 | 244 | 0.0 | 2.0 | 0.00 | 0.00 | 0.00 | 59 | 1011.6 |
| 20260504024003 | 42 | 243 | 0.0 | 2.0 | 0.00 | 0.00 | 0.00 | 58 | 1011.6 |
| 20260504023503 | 42 | 266 | 0.0 | 3.0 | 0.00 | 0.00 | 0.00 | 58 | 1011.6 |
| 20260504023003 | 42 | 271 | 0.0 | 3.0 | 0.00 | 0.00 | 0.00 | 58 | 1011.6 |
| 20260504022503 | 42 | 239 | 0.0 | 2.0 | 0.00 | 0.00 | 0.00 | 58 | 1011.6 |
| 20260504022003 | 42 | 214 | 0.0 | 2.0 | 0.00 | 0.00 | 0.00 | 57 | 1011.7 |
| 20260504021524 | 42 | 241 | 0.0 | 2.0 | 0.00 | 0.00 | 0.00 | 57 | 1011.7 |
| 20260504021024 | 42 | 241 | 0.0 | 2.0 | 0.00 | 0.00 | 0.00 | 57 | 1011.8 |
| 20260504020503 | 42 | 0 | 0.0 | 0.0 | 0.00 | 0.00 | 0.00 | 57 | 1011.6 |
| 20260504020003 | 42 | 0 | 0.0 | 0.0 | 0.00 | 0.00 | 0.00 | 57 | 1011.6 |
| 20260504015524 | 43 | 250 | 0.0 | 2.0 | 0.00 | 0.00 | 0.00 | 56 | 1011.6 |
| 20260504015003 | 43 | 250 | 0.0 | 3.0 | 0.00 | 0.00 | 0.00 | 56 | 1011.6 |
| 20260504014503 | 43 | 250 | 0.0 | 3.0 | 0.00 | 0.00 | 0.00 | 55 | 1011.6 |
| 20260504014003 | 44 | 112 | 0.0 | 1.0 | 0.00 | 0.00 | 0.00 | 54 | 1011.5 |
| 20260504013524 | 44 | 207 | 0.0 | 2.0 | 0.00 | 0.00 | 0.00 | 53 | 1011.4 |
| 20260504013003 | 44 | 222 | 1.0 | 3.0 | 0.00 | 0.00 | 0.00 | 53 | 1011.2 |
| 20260504012503 | 44 | 226 | 1.0 | 3.0 | 0.00 | 0.00 | 0.00 | 53 | 1011.4 |
| 20260504012003 | 44 | 240 | 0.0 | 2.0 | 0.00 | 0.00 | 0.00 | 52 | 1011.4 |
| 20260504011503 | 44 | 249 | 0.0 | 3.0 | 0.00 | 0.00 | 0.00 | 52 | 1011.5 |
| 20260504011003 | 45 | 253 | 0.0 | 3.0 | 0.00 | 0.00 | 0.00 | 51 | 1011.3 |
| 20260504010503 | 45 | 267 | 0.0 | 2.0 | 0.00 | 0.00 | 0.00 | 51 | 1011.3 |
| 20260504010003 | 45 | 254 | 0.0 | 2.0 | 0.00 | 0.00 | 0.00 | 50 | 1011.2 |
| 20260504005524 | 46 | 239 | 0.0 | 2.0 | 0.00 | 0.00 | 0.00 | 50 | 1011.1 |
| 20260504005003 | 46 | 238 | 1.0 | 7.0 | 0.00 | 0.00 | 0.00 | 50 | 1011.2 |
| 20260504004524 | 46 | 243 | 1.0 | 7.0 | 0.00 | 0.00 | 0.00 | 49 | 1011.0 |
| 20260504004003 | 47 | 303 | 0.0 | 3.0 | 0.00 | 0.00 | 0.00 | 48 | 1011.2 |
| 20260504003503 | 47 | 249 | 1.0 | 9.0 | 0.00 | 0.00 | 0.00 | 48 | 1011.0 |
| 20260504003003 | 47 | 242 | 1.0 | 9.0 | 0.00 | 0.00 | 0.00 | 48 | 1011.0 |
| 20260504002503 | 47 | 257 | 1.0 | 4.0 | 0.00 | 0.00 | 0.00 | 47 | 1010.9 |
| 20260504002024 | 47 | 270 | 1.0 | 4.0 | 0.00 | 0.00 | 0.00 | 47 | 1011.0 |
| 20260504001503 | 47 | 266 | 1.0 | 6.0 | 0.00 | 0.00 | 0.00 | 47 | 1011.0 |
| 20260504001003 | 47 | 246 | 1.0 | 6.0 | 0.00 | 0.00 | 0.00 | 47 | 1010.6 |
| 20260504000503 | 47 | 243 | 0.0 | 4.0 | 0.00 | 0.00 | 0.00 | 47 | 1011.0 |
| 20260504000003 | 48 | 266 | 0.0 | 2.0 | 0.00 | 0.00 | 0.00 | 47 | 1010.8 |
| 20260503235524 | 48 | 280 | 0.0 | 2.0 | 0.00 | 0.00 | 0.00 | 47 | 1010.7 |
| 20260503235003 | 49 | 303 | 1.0 | 4.0 | 0.00 | 0.00 | 0.00 | 46 | 1010.5 |
| 20260503234524 | 49 | 286 | 1.0 | 4.0 | 0.00 | 0.00 | 0.00 | 45 | 1010.7 |
| 20260503234008 | 49 | 280 | 2.0 | 9.0 | 0.00 | 0.00 | 0.00 | 44 | 1010.4 |
| 20260503233503 | 49 | 296 | 2.0 | 9.0 | 0.00 | 0.00 | 0.00 | 43 | 1010.6 |
| 20260503233003 | 50 | 275 | 2.0 | 9.0 | 0.00 | 0.00 | 0.00 | 44 | 1010.4 |
| 20260503232503 | 50 | 271 | 2.0 | 8.0 | 0.00 | 0.00 | 0.00 | 43 | 1010.4 |
| 20260503232003 | 50 | 277 | 1.0 | 8.0 | 0.00 | 0.00 | 0.00 | 42 | 1010.4 |
| 20260503231524 | 51 | 264 | 2.0 | 4.0 | 0.00 | 0.00 | 0.00 | 42 | 1010.4 |
| 20260503231003 | 51 | 271 | 2.0 | 7.0 | 0.00 | 0.00 | 0.00 | 42 | 1010.4 |
| 20260503230503 | 51 | 290 | 2.0 | 7.0 | 0.00 | 0.00 | 0.00 | 42 | 1010.4 |
| 20260503230003 | 51 | 271 | 3.0 | 8.0 | 0.00 | 0.00 | 0.00 | 42 | 1010.4 |
| 20260503225503 | 51 | 270 | 2.0 | 8.0 | 0.00 | 0.00 | 0.00 | 41 | 1010.3 |
| 20260503225003 | 51 | 277 | 2.0 | 6.0 | 0.00 | 0.00 | 0.00 | 41 | 1010.4 |
| 20260503224503 | 51 | 258 | 2.0 | 9.0 | 0.00 | 0.00 | 0.00 | 41 | 1010.3 |
| 20260503224003 | 52 | 261 | 3.0 | 13.0 | 0.00 | 0.00 | 0.00 | 40 | 1010.2 |
| 20260503223503 | 52 | 267 | 3.0 | 13.0 | 0.00 | 0.00 | 0.00 | 41 | 1010.1 |
| 20260503223003 | 52 | 286 | 2.0 | 10.0 | 0.00 | 0.00 | 0.00 | 40 | 1010.4 |
| 20260503222503 | 52 | 287 | 3.0 | 10.0 | 0.00 | 0.00 | 0.00 | 40 | 1010.4 |
| 20260503222003 | 52 | 278 | 4.0 | 9.0 | 0.00 | 0.00 | 0.00 | 39 | 1010.2 |
| 20260503221503 | 52 | 254 | 3.0 | 9.0 | 0.00 | 0.00 | 0.00 | 39 | 1010.2 |
| 20260503221003 | 52 | 271 | 3.0 | 9.0 | 0.00 | 0.00 | 0.00 | 39 | 1010.4 |
| 20260503220503 | 51 | 296 | 3.0 | 13.0 | 0.00 | 0.00 | 0.00 | 39 | 1010.2 |
| 20260503220024 | 51 | 308 | 3.0 | 13.0 | 0.00 | 0.00 | 0.00 | 39 | 1010.4 |
| 20260503215503 | 51 | 314 | 3.0 | 11.0 | 0.00 | 0.00 | 0.00 | 39 | 1010.3 |
| 20260503215003 | 52 | 290 | 4.0 | 11.0 | 0.00 | 0.00 | 0.00 | 37 | 1010.2 |
| 20260503214503 | 52 | 277 | 3.0 | 9.0 | 0.00 | 0.00 | 0.00 | 38 | 1010.3 |
| 20260503214003 | 52 | 289 | 4.0 | 13.0 | 0.00 | 0.00 | 0.00 | 37 | 1010.1 |
| 20260503213503 | 53 | 295 | 4.0 | 13.0 | 0.00 | 0.00 | 0.00 | 37 | 1009.9 |
| 20260503212503 | 52 | 287 | 3.0 | 11.0 | 0.00 | 0.00 | 0.00 | 36 | 1009.8 |
| 20260503212003 | 53 | 271 | 4.0 | 11.0 | 0.00 | 0.00 | 0.00 | 35 | 1010.0 |
| 20260503211003 | 53 | 280 | 4.0 | 9.0 | 0.00 | 0.00 | 0.00 | 35 | 1009.9 |
| 20260503210503 | 53 | 258 | 4.0 | 10.0 | 0.00 | 0.00 | 0.00 | 36 | 1009.8 |
| 20260503210003 | 53 | 257 | 4.0 | 15.0 | 0.00 | 0.00 | 0.00 | 36 | 1009.9 |
| 20260503205503 | 53 | 252 | 4.0 | 15.0 | 0.00 | 0.00 | 0.00 | 35 | 1009.8 |
| 20260503205003 | 54 | 257 | 4.0 | 13.0 | 0.00 | 0.00 | 0.00 | 34 | 1009.8 |
| 20260503204524 | 54 | 288 | 5.0 | 13.0 | 0.00 | 0.00 | 0.00 | 34 | 1009.8 |
| 20260503204003 | 54 | 306 | 5.0 | 13.0 | 0.00 | 0.00 | 0.00 | 35 | 1009.5 |
| 20260503203503 | 54 | 279 | 5.0 | 14.0 | 0.00 | 0.00 | 0.00 | 34 | 1010.0 |
| 20260503203003 | 54 | 282 | 5.0 | 16.0 | 0.00 | 0.00 | 0.00 | 35 | 1009.9 |
| 20260503202503 | 53 | 307 | 5.0 | 16.0 | 0.00 | 0.00 | 0.00 | 34 | 1009.9 |
| 20260503202003 | 53 | 275 | 4.0 | 16.0 | 0.00 | 0.00 | 0.00 | 36 | 1010.0 |
| 20260503201525 | 53 | 262 | 4.0 | 16.0 | 0.00 | 0.00 | 0.00 | 35 | 1009.9 |
| 20260503201003 | 53 | 265 | 4.0 | 13.0 | 0.00 | 0.00 | 0.00 | 32 | 1009.8 |
| 20260503200503 | 53 | 292 | 4.0 | 11.0 | 0.00 | 0.00 | 0.00 | 37 | 1009.9 |
| 20260503200003 | 52 | 286 | 5.0 | 16.0 | 0.00 | 0.00 | 0.00 | 36 | 1009.9 |
| 20260503195503 | 52 | 283 | 5.0 | 16.0 | 0.00 | 0.00 | 0.00 | 35 | 1010.2 |
| 20260503195003 | 52 | 303 | 4.0 | 14.0 | 0.00 | 0.00 | 0.00 | 35 | 1010.0 |
| 20260503194503 | 52 | 310 | 5.0 | 21.0 | 0.00 | 0.00 | 0.00 | 35 | 1010.3 |
| 20260503194003 | 52 | 311 | 6.0 | 21.0 | 0.00 | 0.00 | 0.00 | 35 | 1010.3 |
| 20260503193503 | 52 | 316 | 4.0 | 16.0 | 0.00 | 0.00 | 0.00 | 36 | 1010.4 |
| 20260503193003 | 52 | 313 | 4.0 | 14.0 | 0.00 | 0.00 | 0.00 | 36 | 1010.3 |
| 20260503192524 | 52 | 311 | 5.0 | 14.0 | 0.00 | 0.00 | 0.00 | 37 | 1010.4 |
| 20260503192003 | 51 | 309 | 6.0 | 15.0 | 0.00 | 0.00 | 0.00 | 37 | 1010.6 |
| 20260503191524 | 51 | 292 | 5.0 | 15.0 | 0.00 | 0.00 | 0.00 | 36 | 1010.5 |
| 20260503191003 | 51 | 257 | 5.0 | 18.0 | 0.00 | 0.00 | 0.00 | 36 | 1010.3 |
| 20260503190503 | 51 | 263 | 5.0 | 18.0 | 0.00 | 0.00 | 0.00 | 38 | 1010.5 |
| 20260503190024 | 51 | 285 | 4.0 | 15.0 | 0.00 | 0.00 | 0.00 | 39 | 1010.5 |
| 20260503185524 | 51 | 290 | 5.0 | 15.0 | 0.00 | 0.00 | 0.00 | 38 | 1010.6 |
| 20260503185003 | 51 | 289 | 5.0 | 15.0 | 0.00 | 0.00 | 0.00 | 38 | 1010.7 |
| 20260503184503 | 51 | 296 | 5.0 | 15.0 | 0.00 | 0.00 | 0.00 | 37 | 1010.9 |
| 20260503184003 | 51 | 290 | 5.0 | 15.0 | 0.00 | 0.00 | 0.00 | 36 | 1010.8 |
| 20260503183503 | 51 | 294 | 5.0 | 17.0 | 0.00 | 0.00 | 0.00 | 41 | 1010.8 |
| 20260503183024 | 50 | 297 | 5.0 | 17.0 | 0.00 | 0.00 | 0.00 | 38 | 1010.9 |
| 20260503182524 | 50 | 292 | 5.0 | 16.0 | 0.00 | 0.00 | 0.00 | 38 | 1010.9 |
| 20260503182003 | 50 | 296 | 5.0 | 15.0 | 0.00 | 0.00 | 0.00 | 39 | 1010.9 |
| 20260503181504 | 50 | 278 | 6.0 | 16.0 | 0.00 | 0.00 | 0.00 | 37 | 1010.7 |
| 20260503181003 | 50 | 265 | 5.0 | 16.0 | 0.00 | 0.00 | 0.00 | 39 | 1010.8 |
| 20260503180503 | 50 | 270 | 6.0 | 23.0 | 0.00 | 0.00 | 0.00 | 40 | 1010.9 |
| 20260503180003 | 50 | 276 | 6.0 | 23.0 | 0.00 | 0.00 | 0.00 | 39 | 1011.0 |
| 20260503175524 | 49 | 290 | 5.0 | 14.0 | 0.00 | 0.00 | 0.00 | 41 | 1011.2 |
| 20260503175003 | 49 | 289 | 5.0 | 16.0 | 0.00 | 0.00 | 0.00 | 38 | 1010.7 |
| 20260503174503 | 50 | 277 | 5.0 | 16.0 | 0.00 | 0.00 | 0.00 | 38 | 1011.0 |
| 20260503174003 | 49 | 294 | 4.0 | 15.0 | 0.00 | 0.00 | 0.00 | 42 | 1011.0 |
| 20260503173503 | 49 | 303 | 5.0 | 24.0 | 0.00 | 0.00 | 0.00 | 39 | 1011.1 |
| 20260503173003 | 48 | 278 | 4.0 | 24.0 | 0.00 | 0.00 | 0.00 | 43 | 1011.0 |
| 20260503172504 | 48 | 263 | 4.0 | 14.0 | 0.00 | 0.00 | 0.00 | 41 | 1011.0 |
| 20260503172003 | 49 | 279 | 5.0 | 14.0 | 0.00 | 0.00 | 0.00 | 41 | 1011.0 |
| 20260503171503 | 48 | 275 | 4.0 | 14.0 | 0.00 | 0.00 | 0.00 | 41 | 1011.1 |
| 20260503171003 | 48 | 266 | 4.0 | 11.0 | 0.00 | 0.00 | 0.00 | 42 | 1010.9 |
| 20260503170503 | 48 | 272 | 5.0 | 16.0 | 0.00 | 0.00 | 0.00 | 43 | 1011.1 |
| 20260503150503 | 42 | 270 | 3.0 | 11.0 | 0.00 | 0.00 | 0.00 | 57 | 1011.8 |
| 20260503131003 | 38 | 303 | 4.0 | 13.0 | 0.00 | 0.00 | 0.00 | 68 | 1011.5 |
| 20260503130503 | 38 | 310 | 3.0 | 11.0 | 0.00 | 0.00 | 0.00 | 70 | 1011.7 |
| 20260503110503 | 33 | 284 | 2.0 | 7.0 | 0.00 | 0.00 | 0.00 | 79 | 1011.1 |